Dades meteomassalio
Diari Summary for Febrer 19, 2017 Units:  Metric    English   Both
« Previous Day
Next Day »
Diari Semanal Mensual Anual Personalitzat
  Maxima: Minima: Mijana:
Temperatura: -17.8 °C -17.4 °C -14.9 °C
Rosada: -17.8 °C -17.9 °C -15.7 °C
Humitat: Humidity % 75 % 91 %
Velocitat del vent: 0 km/h 0 km/h 0.5 km/h
Racha vent: 0 km/h - -
Vent:- - SW
Pressio: 0 hPa 34659.1 hPa -
Pluja: 7.62 mm    
Historical Graphs
 
 
Tabular Data for Febrer 19, 2017
Time Temperature Dew Point Pressure Wind Wind Speed Wind Gust Humidity Rainfall Rate (Hourly) solar Conditions
-17.8 °C -17.8 °C 0 hPa Calm     Humidity % 0 mm SolarRadiationWatts/m^2 W/m2 Conditions
00:00 -16.1 °C -16.6 °C 34659.1 hPa Calm     93 % 0 mm 0.0 W/m2 CLR
00:05 -16.2 °C -16.7 °C 34659.1 hPa Calm     93 % 0 mm 0.0 W/m2 CLR
00:10 -16.2 °C -16.8 °C 34659.1 hPa Calm     93 % 0 mm 0.0 W/m2 CLR
00:15 -16.3 °C -16.8 °C 34669.3 hPa Calm     93 % 0 mm 0.0 W/m2 CLR
00:20 -16.3 °C -16.8 °C 34669.3 hPa Calm     93 % 0 mm 0.0 W/m2 CLR
00:25 -16.3 °C -16.9 °C 34669.3 hPa Calm     93 % 0 mm 0.0 W/m2 CLR
00:30 -16.4 °C -17 °C 34669.3 hPa Calm     93 % 0 mm 0.0 W/m2 CLR
00:35 -16.5 °C -17.1 °C 34669.3 hPa Calm     93 % 0 mm 0.0 W/m2 CLR
00:41 -16.6 °C -17.1 °C 34669.3 hPa Calm     93 % 0 mm 0.0 W/m2 CLR
00:46 -16.6 °C -17.1 °C 34669.3 hPa Calm     93 % 0 mm 0.0 W/m2 CLR
00:51 -16.6 °C -17.1 °C 34682.8 hPa Calm     93 % 0 mm 0.0 W/m2 CLR
00:56 -16.6 °C -17.2 °C 34669.3 hPa Calm     93 % 0 mm 0.0 W/m2 CLR
01:01 -16.7 °C -17.3 °C 34669.3 hPa Calm     93 % 0 mm 0.0 W/m2 CLR
01:06 -16.7 °C -17.2 °C 34682.8 hPa Calm     94 % 0 mm 0.0 W/m2 CLR
01:11 -16.8 °C -17.3 °C 34682.8 hPa Calm     93 % 0 mm 0.0 W/m2 CLR
01:16 -16.8 °C -17.3 °C 34682.8 hPa Calm     94 % 0 mm 0.0 W/m2 CLR
01:21 -16.9 °C -17.4 °C 34682.8 hPa Calm     94 % 0 mm 0.0 W/m2 CLR
01:26 -16.9 °C -17.4 °C 34682.8 hPa Calm     93 % 0 mm 0.0 W/m2 CLR
01:31 -16.9 °C -17.5 °C 34682.8 hPa Calm     93 % 0 mm 0.0 W/m2 CLR
01:36 -17 °C -17.6 °C 34682.8 hPa Calm     93 % 0 mm 0.0 W/m2 CLR
01:41 -17 °C -17.4 °C 34682.8 hPa Calm     94 % 0 mm 0.0 W/m2 CLR
01:46 -17 °C -17.4 °C 34682.8 hPa Calm     94 % 0 mm 0.0 W/m2 CLR
01:52 -17.1 °C -17.5 °C 34682.8 hPa Calm     94 % 0 mm 0.0 W/m2 CLR
01:57 -17.1 °C -17.6 °C 34682.8 hPa Calm     94 % 0 mm 0.0 W/m2 CLR
02:02 -17.1 °C -17.6 °C 34682.8 hPa Calm     94 % 0 mm 0.0 W/m2 CLR
02:07 -17.1 °C -17.6 °C 34682.8 hPa Calm     94 % 0 mm 0.0 W/m2 CLR
02:12 -17.1 °C -17.6 °C 34693 hPa Calm     94 % 0 mm 0.0 W/m2 CLR
02:17 -17.2 °C -17.6 °C 34693 hPa Calm     94 % 0 mm 0.0 W/m2 CLR
02:22 -17.2 °C -17.6 °C 34693 hPa Calm     94 % 0 mm 0.0 W/m2 CLR
02:27 -17.2 °C -17.7 °C 34703.1 hPa Calm     94 % 0 mm 0.0 W/m2 CLR
02:32 -17.2 °C -17.7 °C 34703.1 hPa Calm     94 % 0 mm 0.0 W/m2 CLR
02:37 -17.2 °C -17.7 °C 34703.1 hPa Calm     94 % 0 mm 0.0 W/m2 CLR
02:42 -17.2 °C -17.7 °C 34703.1 hPa Calm     94 % 0 mm 0.0 W/m2 CLR
02:47 -17.2 °C -17.7 °C 34703.1 hPa Calm     94 % 0 mm 0.0 W/m2 CLR
02:52 -17.2 °C -17.7 °C 34716.7 hPa Calm     94 % 0 mm 0.0 W/m2 CLR
02:57 -17.1 °C -17.6 °C 34716.7 hPa Calm     94 % 0 mm 0.0 W/m2 CLR
03:02 -17.1 °C -17.6 °C 34716.7 hPa Calm     94 % 0 mm 0.0 W/m2 CLR
03:08 -17.2 °C -17.6 °C 34716.7 hPa Calm     94 % 0 mm 0.0 W/m2 CLR
03:13 -17.2 °C -17.7 °C 34716.7 hPa Calm     94 % 0 mm 0.0 W/m2 CLR
03:18 -17.3 °C -17.7 °C 34716.7 hPa Calm     94 % 0 mm 0.0 W/m2 CLR
03:23 -17.3 °C -17.7 °C 34716.7 hPa Calm     94 % 0 mm 0.0 W/m2 CLR
03:28 -17.3 °C -17.7 °C 34726.8 hPa Calm     94 % 0 mm 0.0 W/m2 CLR
03:33 -17.3 °C -17.7 °C 34726.8 hPa Calm     94 % 0 mm 0.0 W/m2 CLR
03:38 -17.3 °C -17.8 °C 34726.8 hPa Calm     94 % 0 mm 0.0 W/m2 CLR
03:43 -17.3 °C -17.8 °C 34726.8 hPa Calm     94 % 0 mm 0.0 W/m2 CLR
03:48 -17.3 °C -17.8 °C 34726.8 hPa Calm     94 % 0 mm 0.0 W/m2 CLR
03:53 -17.3 °C -17.8 °C 34726.8 hPa Calm     94 % 0 mm 0.0 W/m2 CLR
03:58 -17.4 °C -17.8 °C 34726.8 hPa Calm     94 % 0 mm 0.0 W/m2 CLR
04:03 -17.4 °C -17.8 °C 34726.8 hPa Calm     94 % 0 mm 0.0 W/m2 CLR
04:08 -17.4 °C -17.9 °C 34726.8 hPa Calm     94 % 0 mm 0.0 W/m2 CLR
04:13 -17.4 °C -17.9 °C 34726.8 hPa Calm     94 % 0 mm 0.0 W/m2 CLR
04:18 -17.4 °C -17.9 °C 34726.8 hPa Calm     94 % 0 mm 0.0 W/m2 CLR
04:23 -17.4 °C -17.9 °C 34726.8 hPa Calm     94 % 0 mm 0.0 W/m2 CLR
04:28 -17.4 °C -17.9 °C 34726.8 hPa Calm     94 % 0 mm 0.0 W/m2 CLR
04:33 -17.4 °C -17.8 °C 34726.8 hPa Calm     94 % 0 mm 0.0 W/m2 CLR
04:39 -17.3 °C -17.8 °C 34740.4 hPa Calm     94 % 0 mm 0.0 W/m2 CLR
04:44 -17.3 °C -17.7 °C 34740.4 hPa Calm     94 % 0 mm 0.0 W/m2 CLR
04:49 -17.3 °C -17.7 °C 34740.4 hPa Calm     94 % 0 mm 0.0 W/m2 CLR
04:54 -17.3 °C -17.7 °C 34740.4 hPa Calm     94 % 0 mm 0.0 W/m2 CLR
04:59 -17.3 °C -17.7 °C 34740.4 hPa Calm     94 % 0 mm 0.0 W/m2 CLR
05:04 -17.2 °C -17.7 °C 34740.4 hPa Calm     94 % 0 mm 0.0 W/m2 CLR
05:09 -17.1 °C -17.6 °C 34750.5 hPa Calm     94 % 0 mm 0.0 W/m2 CLR
05:14 -17.1 °C -17.6 °C 34750.5 hPa Calm     94 % 0 mm 0.0 W/m2 CLR
05:19 -17.1 °C -17.6 °C 34750.5 hPa Calm     94 % 0 mm 0.0 W/m2 CLR
05:24 -17.1 °C -17.6 °C 34750.5 hPa Calm     94 % 0 mm 0.0 W/m2 CLR
05:29 -17.1 °C -17.6 °C 34750.5 hPa Calm     94 % 0 mm 0.0 W/m2 CLR
05:34 -17.1 °C -17.6 °C 34750.5 hPa Calm     94 % 0 mm 0.0 W/m2 CLR
05:39 -17.1 °C -17.5 °C 34750.5 hPa Calm     94 % 0 mm 0.0 W/m2 CLR
05:45 -17 °C -17.4 °C 34750.5 hPa Calm     94 % 0 mm 0.0 W/m2 CLR
05:50 -16.9 °C -17.4 °C 34750.5 hPa Calm     94 % 0 mm 0.0 W/m2 CLR
05:55 -16.9 °C -17.4 °C 34760.7 hPa Calm     94 % 0 mm 0.0 W/m2 CLR
06:00 -16.9 °C -17.4 °C 34760.7 hPa Calm     94 % 0 mm 0.0 W/m2 CLR
06:05 -16.8 °C -17.3 °C 34760.7 hPa Calm     94 % 0 mm 0.0 W/m2 CLR
06:10 -16.8 °C -17.3 °C 34774.2 hPa Calm     94 % 0 mm 0.0 W/m2 CLR
06:15 -16.9 °C -17.4 °C 34774.2 hPa Calm     94 % 0 mm 0.0 W/m2 CLR
06:20 -16.9 °C -17.4 °C 34774.2 hPa Calm     94 % 0 mm 0.0 W/m2 CLR
06:25 -16.9 °C -17.4 °C 34774.2 hPa Calm     94 % 0 mm 0.0 W/m2 CLR
06:30 -16.8 °C -17.3 °C 34774.2 hPa Calm     94 % 0 mm 0.0 W/m2 CLR
06:35 -16.8 °C -17.3 °C 34784.4 hPa Calm     94 % 0 mm 0.0 W/m2 CLR
06:40 -16.8 °C -17.3 °C 34774.2 hPa Calm     94 % 0 mm 0.0 W/m2 CLR
06:45 -16.7 °C -17.2 °C 34784.4 hPa Calm     94 % 0 mm 0.0 W/m2 CLR
06:50 -16.6 °C -17.1 °C 34784.4 hPa Calm     94 % 0 mm 0.0 W/m2 CLR
06:55 -16.6 °C -17.1 °C 34784.4 hPa Calm     94 % 0 mm 0.0 W/m2 CLR
07:00 -16.6 °C -17.1 °C 34784.4 hPa Calm     94 % 0 mm 0.0 W/m2 CLR
07:05 -16.6 °C -17.1 °C 34784.4 hPa Calm     94 % 0 mm 0.0 W/m2 CLR
07:10 -16.6 °C -17.1 °C 34797.9 hPa Calm     94 % 0 mm 0.0 W/m2 CLR
07:15 -16.5 °C -17 °C 34797.9 hPa Calm     94 % 0 mm 0.0 W/m2 CLR
07:20 -16.5 °C -17 °C 34797.9 hPa Calm     94 % 7.62 mm 0.0 W/m2 RA
07:25 -16.4 °C -16.9 °C 34797.9 hPa Calm     94 % 7.62 mm 0.0 W/m2 CLR
07:30 -16.4 °C -16.9 °C 34797.9 hPa Calm     94 % 7.62 mm 0.0 W/m2 CLR
07:35 -16.4 °C -16.9 °C 34808.1 hPa Calm     94 % 7.62 mm 0.0 W/m2 CLR
07:40 -16.3 °C -16.8 °C 34797.9 hPa Calm     94 % 7.62 mm 0.0 W/m2 OVC
07:45 -16.3 °C -16.8 °C 34808.1 hPa Calm     94 % 7.62 mm 0.0 W/m2 OVC
07:50 -16.2 °C -16.7 °C 34808.1 hPa Calm     94 % 7.62 mm 0.0 W/m2 OVC
07:55 -16.2 °C -16.7 °C 34808.1 hPa Calm     94 % 7.62 mm 0.0 W/m2 OVC
08:00 -16.2 °C -16.7 °C 34818.2 hPa Calm     94 % 7.62 mm 5.0 W/m2 OVC
08:05 -16.2 °C -16.7 °C 34818.2 hPa Calm     94 % 7.62 mm 5.0 W/m2 OVC
08:10 -16.1 °C -16.6 °C 34818.2 hPa Calm     94 % 7.62 mm 7.0 W/m2 BKN
08:15 -16.1 °C -16.6 °C 34818.2 hPa Calm     94 % 7.62 mm 11.0 W/m2 BKN
08:20 -16.1 °C -16.6 °C 34831.8 hPa Calm     94 % 0 mm 14.0 W/m2 BKN
08:25 -16 °C -16.5 °C 34831.8 hPa Calm     94 % 0 mm 19.0 W/m2 BKN
08:30 -16 °C -16.5 °C 34831.8 hPa Calm     94 % 0 mm 16.0 W/m2 BKN
08:35 -15.9 °C -16.4 °C 34831.8 hPa Calm     94 % 0 mm 16.0 W/m2 BKN
08:40 -15.8 °C -16.3 °C 34841.9 hPa Calm     94 % 0 mm 14.0 W/m2 BKN
08:45 -15.7 °C -16.2 °C 34841.9 hPa Calm     94 % 0 mm 12.0 W/m2 BKN
08:50 -15.6 °C -16.1 °C 34841.9 hPa Calm     94 % 0 mm 19.0 W/m2 BKN
08:55 -15.5 °C -16 °C 34841.9 hPa Calm     94 % 0 mm 25.0 W/m2 BKN
09:00 -15.4 °C -15.9 °C 34841.9 hPa Calm     94 % 0 mm 37.0 W/m2 BKN
09:05 -15.3 °C -15.8 °C 34841.9 hPa WSW 9 km/h   94 % 0 mm 42.0 W/m2 BKN
09:10 -15.2 °C -15.7 °C 34841.9 hPa Calm     94 % 0 mm 53.0 W/m2 SCT
09:15 -15.1 °C -15.6 °C 34841.9 hPa Calm     94 % 0 mm 33.0 W/m2 SCT
09:20 -15.1 °C -15.6 °C 34841.9 hPa Calm     94 % 0 mm 49.0 W/m2 BKN
09:25 -15 °C -15.5 °C 34841.9 hPa Calm     94 % 0 mm 56.0 W/m2 SCT
09:30 -14.9 °C -15.4 °C 34852.1 hPa Calm     94 % 0 mm 60.0 W/m2 SCT
09:35 -14.9 °C -15.4 °C 34852.1 hPa Calm     94 % 0 mm 53.0 W/m2 SCT
09:40 -14.8 °C -15.3 °C 34852.1 hPa Calm     94 % 0 mm 39.0 W/m2 SCT
09:45 -14.9 °C -15.4 °C 34865.6 hPa Calm     94 % 0 mm 40.0 W/m2 BKN
09:50 -14.9 °C -15.4 °C 34865.6 hPa Calm     94 % 0 mm 44.0 W/m2 BKN
09:55 -14.8 °C -15.3 °C 34865.6 hPa Calm     94 % 0 mm 42.0 W/m2 BKN
10:00 -14.8 °C -15.3 °C 34865.6 hPa NW 7.7 km/h 7.7 km/h 94 % 0 mm 54.0 W/m2 BKN
10:05 -14.8 °C -15.2 °C 34865.6 hPa Calm     94 % 0 mm 62.0 W/m2 SCT
10:10 -14.8 °C -15.2 °C 34865.6 hPa Calm     94 % 0 mm 70.0 W/m2 SCT
10:15 -14.7 °C -15.2 °C 34865.6 hPa Calm     94 % 0 mm 83.0 W/m2 FEW
10:20 -14.7 °C -15.2 °C 34865.6 hPa Calm     94 % 0 mm 105.0 W/m2 FEW
10:25 -14.6 °C -15.1 °C 34865.6 hPa Calm     94 % 0 mm 121.0 W/m2 CLR
10:30 -14.6 °C -15.1 °C 34865.6 hPa Calm     94 % 0 mm 114.0 W/m2 CLR
10:35 -14.5 °C -15 °C 34865.6 hPa Calm     94 % 0 mm 158.0 W/m2 CLR
10:40 -14.4 °C -14.9 °C 34865.6 hPa WNW 15 km/h 15 km/h 94 % 0 mm 142.0 W/m2 CLR
10:45 -14.4 °C -14.9 °C 34865.6 hPa Calm     94 % 0 mm 141.0 W/m2 CLR
10:50 -14.4 °C -14.9 °C 34875.8 hPa Calm     94 % 0 mm 114.0 W/m2 CLR
10:55 -14.3 °C -14.8 °C 34875.8 hPa Calm     94 % 0 mm 132.0 W/m2 CLR
11:00 -14.3 °C -14.8 °C 34875.8 hPa Calm     94 % 0 mm 109.0 W/m2 CLR
11:05 -14.3 °C -14.8 °C 34875.8 hPa Calm     94 % 0 mm 93.0 W/m2 CLR
11:10 -14.3 °C -14.8 °C 34875.8 hPa Calm     94 % 0 mm 105.0 W/m2 CLR
11:15 -14.3 °C -14.8 °C 34875.8 hPa Calm     94 % 0 mm 104.0 W/m2 CLR
11:20 -14.3 °C -14.8 °C 34875.8 hPa Calm     94 % 0 mm 95.0 W/m2 CLR
11:25 -14.3 °C -14.8 °C 34875.8 hPa WNW 9 km/h 9 km/h 94 % 0 mm 107.0 W/m2 CLR
11:30 -14.3 °C -14.8 °C 34875.8 hPa Calm     94 % 0 mm 91.0 W/m2 CLR
11:35 -14.2 °C -14.7 °C 34875.8 hPa Calm     94 % 0 mm 95.0 W/m2 CLR
11:41 -14.2 °C -14.7 °C 34875.8 hPa Calm     94 % 0 mm 107.0 W/m2 CLR
11:46 -14.2 °C -14.7 °C 34875.8 hPa Calm     94 % 0 mm 120.0 W/m2 CLR
11:51 -14.2 °C -14.7 °C 34875.8 hPa Calm     94 % 0 mm 113.0 W/m2 CLR
11:56 -14.2 °C -14.7 °C 34875.8 hPa Calm     94 % 0 mm 93.0 W/m2 CLR
12:01 -14.2 °C -14.7 °C 34875.8 hPa Calm     94 % 0 mm 84.0 W/m2 CLR
12:06 -14.2 °C -14.7 °C 34875.8 hPa Calm     94 % 0 mm 90.0 W/m2 CLR
12:11 -14.2 °C -14.7 °C 34875.8 hPa WNW 11.9 km/h 11.9 km/h 94 % 0 mm 105.0 W/m2 CLR
12:16 -14.2 °C -14.7 °C 34875.8 hPa Calm     94 % 0 mm 104.0 W/m2 CLR
12:21 -14.2 °C -14.7 °C 34875.8 hPa Calm     94 % 0 mm 97.0 W/m2 CLR
12:26 -14.1 °C -14.6 °C 34875.8 hPa Calm     94 % 0 mm 88.0 W/m2 CLR
12:31 -14.1 °C -14.6 °C 34875.8 hPa Calm     94 % 0 mm 93.0 W/m2 CLR
12:36 -14.1 °C -14.6 °C 34875.8 hPa Calm     94 % 0 mm 77.0 W/m2 CLR
12:41 -14.1 °C -14.6 °C 34875.8 hPa Calm     94 % 0 mm 77.0 W/m2 CLR
12:46 -14.1 °C -14.6 °C 34875.8 hPa Calm     94 % 0 mm 90.0 W/m2 FEW
12:51 -14.1 °C -14.6 °C 34865.6 hPa Calm     94 % 0 mm 95.0 W/m2 CLR
12:56 -14.1 °C -14.6 °C 34865.6 hPa Calm     94 % 0 mm 95.0 W/m2 CLR
13:01 -14.1 °C -14.6 °C 34865.6 hPa WSW 12.9 km/h 12.9 km/h 94 % 0 mm 102.0 W/m2 CLR
13:06 -14.1 °C -14.6 °C 34865.6 hPa Calm     94 % 0 mm 105.0 W/m2 CLR
13:11 -14 °C -14.5 °C 34865.6 hPa Calm     94 % 0 mm 107.0 W/m2 CLR
13:16 -14 °C -14.5 °C 34865.6 hPa Calm     94 % 0 mm 102.0 W/m2 CLR
13:21 -13.9 °C -14.4 °C 34852.1 hPa Calm     94 % 0 mm 114.0 W/m2 CLR
13:26 -13.9 °C -14.4 °C 34852.1 hPa WNW 7.7 km/h 7.7 km/h 94 % 0 mm 128.0 W/m2 CLR
13:31 -13.9 °C -14.4 °C 34852.1 hPa Calm     94 % 0 mm 130.0 W/m2 CLR
13:36 -13.8 °C -14.3 °C 34852.1 hPa Calm     94 % 0 mm 148.0 W/m2 CLR
13:41 -13.8 °C -14.3 °C 34841.9 hPa Calm     94 % 0 mm 148.0 W/m2 CLR
13:46 -13.8 °C -14.3 °C 34841.9 hPa Calm     94 % 0 mm 167.0 W/m2 CLR
13:51 -13.8 °C -14.3 °C 34841.9 hPa Calm     94 % 0 mm 183.0 W/m2 CLR
13:56 -13.7 °C -14.2 °C 34841.9 hPa Calm     94 % 0 mm 218.0 W/m2 CLR
14:01 -13.6 °C -14.1 °C 34841.9 hPa Calm     94 % 0 mm 185.0 W/m2 CLR
14:06 -13.6 °C -14.1 °C 34841.9 hPa West 9 km/h 9 km/h 94 % 0 mm 162.0 W/m2 CLR
14:11 -13.6 °C -14.1 °C 34831.8 hPa Calm     94 % 0 mm 230.0 W/m2 CLR
14:16 -13.6 °C -14.1 °C 34831.8 hPa Calm     94 % 0 mm 213.0 W/m2 CLR
14:21 -13.4 °C -13.9 °C 34831.8 hPa Calm     94 % 0 mm 185.0 W/m2 CLR
14:26 -13.4 °C -13.9 °C 34831.8 hPa Calm     94 % 0 mm 172.0 W/m2 CLR
14:31 -13.3 °C -13.8 °C 34831.8 hPa Calm     94 % 0 mm 167.0 W/m2 CLR
14:36 -13.3 °C -13.8 °C 34831.8 hPa Calm     94 % 0 mm 149.0 W/m2 CLR
14:41 -13.3 °C -13.8 °C 34831.8 hPa Calm     94 % 0 mm 200.0 W/m2 CLR
14:46 -13.2 °C -13.8 °C 34818.2 hPa Calm     93 % 0 mm 236.0 W/m2 CLR
14:51 -13.1 °C -13.7 °C 34818.2 hPa SSW 11.9 km/h 11.9 km/h 93 % 0 mm 248.0 W/m2 CLR
14:56 -13 °C -13.6 °C 34818.2 hPa SW 9 km/h 9 km/h 93 % 0 mm 271.0 W/m2 CLR
15:01 -12.9 °C -13.6 °C 34808.1 hPa Calm     92 % 0 mm 311.0 W/m2 CLR
15:06 -12.8 °C -13.5 °C 34808.1 hPa Calm     92 % 0 mm 348.0 W/m2 CLR
15:11 -12.6 °C -13.4 °C 34808.1 hPa WSW 9 km/h   91 % 0 mm 364.0 W/m2 CLR
15:16 -12.3 °C -13.2 °C 34808.1 hPa West 9 km/h 9 km/h 90 % 0 mm 506.0 W/m2 CLR
15:21 -12.2 °C -13.2 °C 34797.9 hPa Calm     89 % 0 mm 469.0 W/m2 CLR
15:26 -12 °C -13.2 °C 34797.9 hPa Calm     87 % 0 mm 450.0 W/m2 CLR
15:31 -11.9 °C -13.2 °C 34797.9 hPa Calm     86 % 0 mm 450.0 W/m2 CLR
15:36 -11.7 °C -13.1 °C 34797.9 hPa Calm     85 % 0 mm 434.0 W/m2 CLR
15:41 -11.6 °C -13.3 °C 34797.9 hPa Calm     82 % 0 mm 429.0 W/m2 CLR
15:46 -11.6 °C -13.3 °C 34784.4 hPa Calm     81 % 0 mm 411.0 W/m2 CLR
15:51 -11.5 °C -13.3 °C 34784.4 hPa Calm     80 % 0 mm 408.0 W/m2 CLR
15:56 -11.5 °C -13.4 °C 34784.4 hPa Calm     79 % 0 mm 394.0 W/m2 CLR
16:01 -11.5 °C -13.4 °C 34784.4 hPa Calm     79 % 0 mm 381.0 W/m2 CLR
16:06 -11.6 °C -13.5 °C 34784.4 hPa Calm     79 % 0 mm 362.0 W/m2 CLR
16:11 -11.4 °C -13.4 °C 34784.4 hPa Calm     79 % 0 mm 353.0 W/m2 CLR
16:16 -11.3 °C -13.4 °C 34774.2 hPa Calm     77 % 0 mm 341.0 W/m2 CLR
16:21 -11.2 °C -13.4 °C 34774.2 hPa Calm     77 % 0 mm 329.0 W/m2 CLR
16:26 -11.2 °C -13.4 °C 34774.2 hPa Calm     76 % 0 mm 309.0 W/m2 CLR
16:31 -11.2 °C -13.4 °C 34774.2 hPa Calm     76 % 0 mm 292.0 W/m2 CLR
16:36 -11.1 °C -13.5 °C 34774.2 hPa Calm     75 % 0 mm 81.0 W/m2 CLR
16:41 -11.2 °C -13.6 °C 34774.2 hPa Calm     75 % 0 mm 91.0 W/m2 CLR
16:46 -11.3 °C -13.6 °C 34774.2 hPa Calm     76 % 0 mm 72.0 W/m2 FEW
16:51 -11.3 °C -13.7 °C 34774.2 hPa NE 2.6 km/h 2.6 km/h 76 % 0 mm 77.0 W/m2 FEW
16:56 -11.3 °C -13.5 °C 34774.2 hPa Calm     77 % 0 mm 232.0 W/m2 FEW
17:01 -11.3 °C -13.4 °C 34774.2 hPa Calm     77 % 0 mm 220.0 W/m2 CLR
17:06 -11.3 °C -13.4 °C 34774.2 hPa East 5.1 km/h 5.1 km/h 77 % 0 mm 199.0 W/m2 CLR
17:11 -11.3 °C -13.2 °C 34774.2 hPa Calm   0.5 km/h 79 % 0 mm 176.0 W/m2 CLR
17:16 -11.3 °C -13.4 °C 34774.2 hPa Calm     77 % 0 mm 162.0 W/m2 CLR
17:21 -11.3 °C -13.4 °C 34774.2 hPa Calm     78 % 0 mm 146.0 W/m2 CLR
17:26 -11.3 °C -13.4 °C 34774.2 hPa Calm     78 % 0 mm 134.0 W/m2 CLR
17:31 -11.3 °C -13.4 °C 34774.2 hPa Calm     78 % 0 mm 118.0 W/m2 CLR
17:36 -11.3 °C -13.4 °C 34774.2 hPa Calm     78 % 0 mm 105.0 W/m2 CLR
17:41 -11.3 °C -13.3 °C 34774.2 hPa Calm     79 % 0 mm 91.0 W/m2 CLR
17:46 -11.4 °C -13.4 °C 34774.2 hPa Calm     79 % 0 mm 79.0 W/m2 FEW
17:51 -11.5 °C -13.4 °C 34774.2 hPa Calm     80 % 0 mm 62.0 W/m2 SCT
17:56 -11.6 °C -13.4 °C 34774.2 hPa Calm     80 % 0 mm 53.0 W/m2 SCT
18:01 -11.6 °C -13.5 °C 34784.4 hPa Calm     80 % 0 mm 42.0 W/m2 BKN
18:06 -11.7 °C -13.4 °C 34784.4 hPa Calm     81 % 0 mm 33.0 W/m2 BKN
18:12 -11.8 °C -13.5 °C 34784.4 hPa Calm     81 % 0 mm 26.0 W/m2 BKN
18:17 -11.8 °C -13.6 °C 34784.4 hPa Calm     81 % 0 mm 19.0 W/m2 BKN
18:22 -11.9 °C -13.6 °C 34784.4 hPa Calm     82 % 0 mm 16.0 W/m2 BKN
18:27 -12 °C -13.6 °C 34784.4 hPa Calm     83 % 0 mm 12.0 W/m2 BKN
18:32 -12.2 °C -13.7 °C 34784.4 hPa Calm     83 % 0 mm 9.0 W/m2 BKN
18:37 -12.2 °C -13.7 °C 34784.4 hPa Calm     84 % 0 mm 5.0 W/m2 OVC
18:42 -12.3 °C -13.7 °C 34784.4 hPa Calm     85 % 0 mm 0.0 W/m2 OVC
18:47 -12.3 °C -13.7 °C 34784.4 hPa Calm     85 % 0 mm 0.0 W/m2 OVC
18:52 -12.3 °C -13.7 °C 34784.4 hPa Calm     85 % 0 mm 0.0 W/m2 CLR
18:57 -12.4 °C -13.7 °C 34797.9 hPa Calm     85 % 0 mm 0.0 W/m2 CLR
19:02 -12.4 °C -13.8 °C 34797.9 hPa Calm     85 % 0 mm 0.0 W/m2 CLR
19:07 -12.6 °C -13.9 °C 34797.9 hPa Calm     85 % 0 mm 0.0 W/m2 CLR
19:12 -12.7 °C -14.1 °C 34797.9 hPa Calm     85 % 0 mm 0.0 W/m2 CLR
19:17 -12.9 °C -14.3 °C 34797.9 hPa Calm     85 % 0 mm 0.0 W/m2 CLR
19:22 -13.1 °C -14.3 °C 34808.1 hPa Calm     86 % 0 mm 0.0 W/m2 CLR
19:27 -13.2 °C -14.3 °C 34808.1 hPa Calm     87 % 0 mm 0.0 W/m2 CLR
19:32 -13.4 °C -14.6 °C 34818.2 hPa Calm     86 % 0 mm 0.0 W/m2 CLR
19:37 -13.6 °C -14.7 °C 34818.2 hPa Calm     87 % 0 mm 0.0 W/m2 CLR
19:42 -13.7 °C -14.8 °C 34818.2 hPa Calm     88 % 0 mm 0.0 W/m2 CLR
19:47 -13.8 °C -14.9 °C 34818.2 hPa Calm     88 % 0 mm 0.0 W/m2 CLR
19:52 -13.9 °C -14.8 °C 34818.2 hPa Calm     90 % 0 mm 0.0 W/m2 CLR
19:57 -14 °C -14.8 °C 34818.2 hPa Calm     90 % 0 mm 0.0 W/m2 CLR
20:02 -14.1 °C -14.9 °C 34818.2 hPa Calm     90 % 0 mm 0.0 W/m2 CLR
20:07 -14.2 °C -15.1 °C 34831.8 hPa Calm     90 % 0 mm 0.0 W/m2 CLR
20:12 -14.3 °C -15.1 °C 34818.2 hPa Calm     90 % 0 mm 0.0 W/m2 CLR
20:17 -14.4 °C -15.2 °C 34818.2 hPa Calm     90 % 0 mm 0.0 W/m2 CLR
20:22 -14.5 °C -15.3 °C 34818.2 hPa Calm     90 % 0 mm 0.0 W/m2 CLR
20:27 -14.6 °C -15.3 °C 34818.2 hPa Calm     91 % 0 mm 0.0 W/m2 CLR
20:32 -14.6 °C -15.4 °C 34818.2 hPa Calm     91 % 0 mm 0.0 W/m2 CLR
20:37 -14.7 °C -15.4 °C 34818.2 hPa Calm     91 % 0 mm 0.0 W/m2 CLR
20:42 -14.8 °C -15.5 °C 34818.2 hPa Calm     91 % 0 mm 0.0 W/m2 CLR
20:47 -14.8 °C -15.6 °C 34818.2 hPa Calm     91 % 0 mm 0.0 W/m2 CLR
20:52 -14.8 °C -15.6 °C 34818.2 hPa Calm     91 % 0 mm 0.0 W/m2 CLR
20:57 -14.9 °C -15.5 °C 34818.2 hPa Calm     92 % 0 mm 0.0 W/m2 CLR
21:02 -14.9 °C -15.6 °C 34818.2 hPa Calm     92 % 0 mm 0.0 W/m2 CLR
21:07 -15 °C -15.7 °C 34818.2 hPa Calm     91 % 0 mm 0.0 W/m2 CLR
21:12 -15.1 °C -15.7 °C 34818.2 hPa Calm     92 % 0 mm 0.0 W/m2 CLR
21:17 -15.1 °C -15.7 °C 34831.8 hPa Calm     92 % 0 mm 0.0 W/m2 CLR
21:22 -15.2 °C -15.8 °C 34831.8 hPa Calm     92 % 0 mm 0.0 W/m2 CLR
21:27 -15.2 °C -15.8 °C 34831.8 hPa Calm     92 % 0 mm 0.0 W/m2 CLR
21:32 -15.2 °C -15.9 °C 34818.2 hPa Calm     92 % 0 mm 0.0 W/m2 CLR
21:37 -15.3 °C -15.9 °C 34818.2 hPa Calm     92 % 0 mm 0.0 W/m2 CLR
21:42 -15.3 °C -15.9 °C 34831.8 hPa Calm     92 % 0 mm 0.0 W/m2 CLR
21:47 -15.3 °C -15.9 °C 34831.8 hPa Calm     92 % 0 mm 0.0 W/m2 CLR
21:52 -15.3 °C -16 °C 34831.8 hPa Calm     92 % 0 mm 0.0 W/m2 CLR
21:57 -15.3 °C -16 °C 34831.8 hPa Calm     92 % 0 mm 0.0 W/m2 CLR
22:02 -15.2 °C -15.8 °C 34831.8 hPa Calm     93 % 0 mm 0.0 W/m2 CLR
22:07 -15.2 °C -15.8 °C 34831.8 hPa Calm     93 % 0 mm 0.0 W/m2 CLR
22:12 -15.3 °C -15.9 °C 34831.8 hPa SSW 9 km/h 9 km/h 92 % 0 mm 0.0 W/m2 CLR
22:17 -15.4 °C -16 °C 34831.8 hPa Calm     92 % 0 mm 0.0 W/m2 CLR
22:23 -15.4 °C -16.1 °C 34831.8 hPa Calm     92 % 0 mm 0.0 W/m2 CLR
22:28 -15.4 °C -16.1 °C 34831.8 hPa Calm     92 % 0 mm 0.0 W/m2 CLR
22:33 -15.4 °C -16 °C 34831.8 hPa Calm     93 % 0 mm 0.0 W/m2 CLR
22:38 -15.4 °C -16 °C 34831.8 hPa Calm     93 % 0 mm 0.0 W/m2 CLR
22:43 -15.6 °C -16.2 °C 34831.8 hPa Calm     92 % 0 mm 0.0 W/m2 CLR
22:48 -15.6 °C -16.2 °C 34831.8 hPa SW 9 km/h   92 % 0 mm 0.0 W/m2 CLR
22:53 -15.7 °C -16.3 °C 34831.8 hPa Calm     92 % 0 mm 0.0 W/m2 CLR
22:59 -15.6 °C -16.2 °C 34841.9 hPa Calm     93 % 0 mm 0.0 W/m2 CLR
23:04 -15.6 °C -16.2 °C 34831.8 hPa Calm     93 % 0 mm 0.0 W/m2 CLR
23:09 -15.6 °C -16.2 °C 34841.9 hPa Calm     93 % 0 mm 0.0 W/m2 CLR
23:14 -15.7 °C -16.2 °C 34841.9 hPa Calm     93 % 0 mm 0.0 W/m2 CLR
23:19 -15.7 °C -16.3 °C 34831.8 hPa Calm     93 % 0 mm 0.0 W/m2 CLR
23:24 -15.7 °C -16.3 °C 34831.8 hPa Calm     93 % 0 mm 0.0 W/m2 CLR
23:29 -15.8 °C -16.5 °C 34841.9 hPa Calm     92 % 0 mm 0.0 W/m2 CLR
23:34 -15.9 °C -16.5 °C 34841.9 hPa Calm     93 % 0 mm 0.0 W/m2 CLR
23:39 -16 °C -16.6 °C 34841.9 hPa Calm     93 % 0 mm 0.0 W/m2 CLR
23:44 -16.1 °C -16.6 °C 34841.9 hPa Calm     93 % 0 mm 0.0 W/m2 CLR
23:49 -16.1 °C -16.6 °C 34841.9 hPa Calm     93 % 0 mm 0.0 W/m2 CLR
23:54 -16.2 °C -16.7 °C 34841.9 hPa Calm     93 % 0 mm 0.0 W/m2 CLR
23:59 -16.2 °C -16.8 °C 34841.9 hPa Calm     93 % 0 mm 0.0 W/m2 CLR
Lo Temps de Massalio
Compliments of Weather Underground - 1.25 mb